SCP
0 0 0 0 0 0 0 0 0 0 0 0 0 0 0 0 0 0 0 0 0 0 0 0 0 0 0 0 0 0 0 0 0 0 0 0 0 0 0 0 0 0 0
-0 -0 0 0 0 0 0 0 0 0 0 0 0 0 0 0 0 0 0 0 0 0 0 0 0 0 0 0 0 0 0 0 0 0 0 0 0 0 0 0 0 0 0
-0 -0 0 0 0 0 0 0 0 0 0 0 0 0 0 0 0 0 0 0 0 0 0 0 0 0 0 0 0 0 0 0 0 0 0 0 0 0 0 -0 -0 0 0
-0 -0 0 0 0 -0 0 0 0 0 0 0 0 0 0 0 0 0 0 0 0 0 0 0 0 0 0 0 0 0 0 0 0 0 0 0 0 0 0 0 0 0 0
-0 -0 -0 0 0 -0 0 0 0 0 0 0 0 0 0 0 0 0 0 0 0 0 0 0 0 0 0 0 0 0 0 0 0 0 0 0 0 0 0 0 0 0 0
-0 -0 0 0 0 0 0 0 0 0 0 0 0 0 0 0 0 0 0 0 0 0 0 0 0 0 0 0 -0 -0 0 0 0 0 0 0 0 0 0 0 0 0 0
-0 -0 -0 -0 -0 0 0 0 0 0 0 0 0 0 0 0 0 0 0 0 0 0 0 0 0 0 0 0 0 0 0 0 0 0 0 0 0 0 0 0 0 0 0
0 -0 -0 -0 0 -0 0 0 0 0 0 0 0 0 0 0 0 0 0 0 0 0 0 0 0 0 0 0 0 0 0 0 0 0 0 0 0 0 0 0 0 0 0
-0 -0 -0 -0 -0 0 0 0 0 0 0 0 0 0 0 0 0 0 0 0 0 0 0 0 0 0 0 0 0 0 0 0 0 0 0 0 0 0 0 0 0 0 0
0 0 0 0 0 0 -0 0 0 0 0 0 0 0 0 0 0 0 0 0 0 0 0 0 0 0 0 0 0 0 0 0 0 0 0 0 0 0 0 0 0 0 0
0 -0 -0 0 0 0 0 0 0 0 0 0 0 0 0 0 0 0 0 0 0 0 0 0 0 0 0 0 0 0 -0 -0 -0 0 0 0 0 0 0 0 0 0 0
-0 0 0 0 0 0 0 0 0 0 0 0 0 0 0 0 0 0 0 0 0 0 0 0 0 0 0 0 -0 -0 -0 -0 -0 -0 -0 -0 0 0 0 0 0 0 0
-0 0 0 0 0 -0 0 0 0 0 0 0 0 0 0 0 0 0 0 0 0 0 0 0 0 0 0 0 -0 -0 -0 -0 -0 -0 -0 -0 0 0 0 0 0 0 0
-0 0 0 -0 -0 -0 0 0 0 0 0 0 0 0 0 0 0 0 0 0 0 0 0 0 0 0 0 0 0 0 0 0 0 0 0 0 0 0 0 0 0 0 0
0 -0 0 -0 -0 0 0 0 0 0 0 0 0 0 0 0 0 0 0 0 0 0 0 0 0 0 0 0 0 0 0 0 0 0 0 0 0 0 0 0 0 0 0
0 0 0 0 0 0 0 0 0 0 0 0 0 0 0 0 0 0 0 0 0 0 0 0 0 0 0 0 0 0 0 0 0 0 0 0 0 0 0 0 0 0 0
0 -0 -0 -0 0 0 0 0 0 0 0 0 0 0 0 0 0 0 0 0 0 0 0 0 0 0 0 0 0 0 0 0 0 0 0 0 0 0 0 0 0 0 0
0 0 0 0 0 0 0 0 0 0 0 0 0 0 0 0 0 0 0 0 0 0 0 0 0 0 0 0 0 0 0 0 0 0 0 0 0 0 0 0 0 0 0
0 0 0 0 0 0 0 0 0 0 0 0 0 0 0 0 0 0 0 0 0 0 0 0 0 0 0 0 0 0 0 0 0 0 0 0 0 0 0 0 0 0 0
0 0 0 0 0 0 0 0 0 0 0 0 0 0 0 0 0 0 0 0 0 0 0 0 0 0 0 0 0 0 0 0 0 0 0 0 0 0 0 0 0 0 0
0 0 0 0 0 0 0 0 0 0 0 0 0 0 0 0 0 0 0 0 0 0 0 0 0 0 0 0 0 0 0 0 0 0 0 0 0 0 0 0 0 0 0
0 0 0 0 0 0 0 0 0 0 0 0 0 0 0 0 0 0 0 0 0 0 0 0 0 0 0 0 0 0 0 0 0 0 0 0 0 0 0 0 0 0 0
0 0 0 0 0 0 0 0 0 0 0 0 0 0 0 0 0 0 0 0 0 0 0 0 0 0 0 0 0 0 0 0 0 0 0 0 0 0 0 0 0 0 0
0 0 0 0 0 0 0 0 0 0 0 0 0 0 0 0 0 0 0 0 0 -0 0 0 0 0 0 0 0 0 0 0 0 0 0 0 0 0 0 0 0 0 0
0 0 0 0 0 0 0 0 0 0 0 0 0 0 0 0 0 0 0 0 0 -0 0 0 0 0 0 0 0 0 0 0 0 0 0 0 0 0 0 0 0 0 0
0 0 0 0 0 0 0 0 0 0 0 0 0 0 0 0 0 0 0 0 0 0 0 -0 0 0 0 0 0 0 0 0 0 0 0 0 0 0 0 0 0 0 0
Wind_Speed_500mb
56 56 49 33 46 45 34 27 21 21 19 13 9 12 17 20 24 22 15 16 19 21 22 24 27 34 38 32 22 26 30 14 13 21 30 40 27 21 20 20 22 27 25
53 62 52 50 49 38 31 27 27 23 19 14 13 14 16 16 13 9 12 16 19 21 22 24 27 32 33 31 28 27 25 33 6 2 7 7 19 26 23 16 17 18 15
54 64 58 57 50 43 33 30 29 26 20 16 13 12 12 8 5 9 13 15 18 19 19 22 25 28 32 35 31 30 28 25 32 31 12 8 8 8 21 23 17 16 15
56 60 58 57 48 38 36 34 33 27 22 15 9 9 6 1 7 12 13 17 18 18 21 22 24 28 32 36 35 33 30 25 25 25 31 28 23 9 3 17 18 14 13
57 67 67 56 45 45 40 38 35 30 22 12 7 5 2 6 11 14 16 16 18 21 24 26 26 29 31 36 33 34 35 32 28 27 22 21 18 20 14 7 11 8 11
54 66 57 54 49 48 43 43 38 31 21 11 5 2 4 9 14 16 15 15 17 21 19 19 18 19 20 22 29 30 33 31 31 30 31 27 25 25 20 13 13 10 10
59 65 65 66 59 54 52 48 40 32 22 13 7 5 8 11 13 14 13 12 11 13 13 20 17 17 19 9 19 24 22 20 25 31 28 29 31 28 24 23 19 15 14
61 68 69 69 64 60 56 50 43 36 24 16 10 10 12 11 14 14 11 12 10 8 7 10 15 14 15 10 14 21 23 19 20 26 28 29 33 31 32 30 27 22 18
67 71 70 74 67 64 58 51 46 38 28 19 14 14 13 11 13 14 14 12 9 7 6 5 9 16 14 5 7 17 25 16 16 18 23 21 24 28 32 33 28 27 28
56 62 67 69 67 62 55 50 44 37 30 22 17 17 13 11 12 14 11 9 8 6 2 5 13 14 13 1 2 11 16 18 14 12 18 23 26 27 28 29 31 29 24
57 62 63 63 68 63 59 51 48 44 35 25 21 20 15 13 18 19 17 16 14 8 3 6 10 14 11 4 5 6 9 13 13 16 20 23 26 23 26 31 26 22 24
50 54 58 62 69 68 62 56 54 47 35 26 24 22 18 18 21 19 15 12 9 10 9 2 7 12 10 8 8 3 4 10 16 21 23 24 26 24 26 30 36 33 34
48 52 56 63 67 68 68 64 58 50 40 30 27 25 21 19 21 19 17 11 8 5 4 7 4 6 9 6 3 1 7 12 14 17 20 23 27 30 30 37 38 29 31
52 55 59 63 69 72 74 69 62 54 43 33 31 26 22 19 21 19 15 12 9 7 5 4 5 4 1 2 2 5 10 14 18 22 25 30 33 36 41 38 42 34 38
55 61 64 66 70 74 77 73 65 57 48 37 32 27 23 22 24 20 16 15 10 9 6 6 6 8 7 6 8 11 16 22 23 28 33 38 40 46 44 46 44 43 38
59 59 57 61 73 83 84 78 69 61 51 39 31 30 27 24 24 21 17 14 12 12 12 12 11 12 12 11 14 20 28 37 42 46 47 50 56 55 51 46 44 45 44
59 63 72 75 81 86 87 82 74 64 53 44 34 33 30 25 27 23 15 14 14 14 14 15 14 12 12 15 21 27 38 45 49 47 36 39 43 37 37 39 41 39 36
58 58 60 66 73 80 81 77 74 64 55 45 38 33 29 26 28 25 20 14 18 17 17 13 11 11 14 20 27 34 38 36 34 31 32 40 41 37 32 38 37 30 33
53 55 55 61 68 74 78 79 79 68 55 48 39 32 27 27 28 22 21 16 16 17 13 10 9 16 20 25 30 32 33 35 34 32 43 39 37 32 30 36 35 37 35
43 48 50 53 58 70 73 77 77 73 57 50 36 28 24 27 25 20 19 17 17 15 13 11 14 20 26 26 30 33 35 34 28 40 37 34 30 27 36 45 36 34 33
37 45 42 50 57 67 68 75 79 73 55 45 36 26 25 26 22 18 18 17 15 14 12 15 20 23 28 36 42 39 32 26 26 24 21 22 28 37 45 47 32 35 45
38 43 45 50 54 58 66 75 76 64 54 45 36 28 31 30 21 19 17 15 12 10 13 19 23 29 33 36 33 24 20 24 27 25 23 27 37 44 48 37 42 44 29
37 41 45 49 51 57 65 71 72 63 57 46 37 33 32 27 23 20 16 10 9 12 16 22 23 24 29 26 22 17 20 24 26 25 27 34 44 45 36 35 33 23 26
40 45 49 51 58 62 63 67 67 62 52 46 38 37 34 28 28 18 13 9 9 14 17 16 20 21 18 20 19 18 22 27 22 24 27 39 35 36 33 30 23 24 27
46 48 51 55 61 65 67 68 66 56 48 44 41 39 32 27 25 16 10 7 8 10 13 16 14 14 14 16 19 23 25 24 29 27 23 26 30 27 32 29 27 27 31
49 54 55 60 66 70 72 68 56 46 47 44 46 40 32 30 21 17 9 4 8 10 12 13 13 16 13 18 22 26 26 29 33 18 24 26 28 33 35 35 38 32 30
Wind_Direction_500mb
197 200 203 231 215 215 212 212 214 217 215 226 255 283 302 309 317 327 2 34 49 50 46 40 29 24 19 33 49 39 42 112 92 77 74 61 62 64 65 71 84 85 88
194 199 201 212 208 211 212 210 214 211 215 229 259 282 290 305 324 15 51 61 61 58 53 41 32 30 44 51 53 42 41 48 103 195 37 45 48 62 60 56 64 71 83
194 195 202 202 201 203 202 212 212 212 215 232 259 278 296 324 41 84 90 77 62 51 47 46 42 39 49 48 48 46 45 46 47 52 64 40 29 38 38 49 72 68 77
202 199 197 195 200 200 209 201 203 207 215 229 255 288 296 255 140 118 102 82 58 57 65 59 60 58 54 47 43 39 44 49 52 44 47 55 55 33 335 33 52 58 63
196 200 198 197 198 206 206 197 199 206 213 226 261 301 255 157 140 127 109 89 59 83 74 76 72 63 54 45 45 42 41 49 53 51 41 34 31 33 40 13 8 22 35
188 204 198 194 198 204 200 197 198 205 211 224 256 227 154 157 144 136 121 105 83 86 81 66 66 54 45 41 43 41 46 51 49 45 39 41 44 37 38 24 3 352 330
187 193 195 192 199 201 199 197 199 205 208 218 219 175 158 149 150 145 133 121 110 93 80 56 57 52 30 43 39 29 27 39 42 37 48 57 56 50 43 36 25 20 7
192 196 195 195 200 202 199 198 200 202 205 211 202 169 158 164 166 164 161 148 138 108 79 56 40 28 25 35 23 19 19 27 38 37 59 54 48 45 42 39 32 17 11
195 194 191 198 199 199 200 198 199 198 202 206 194 177 181 173 177 174 168 161 148 119 77 41 14 354 354 351 10 14 17 19 36 78 44 35 28 26 25 26 27 18 3
193 192 193 195 197 199 198 196 198 199 199 199 187 188 178 177 181 174 167 176 197 201 134 14 340 349 355 41 5 24 29 58 62 48 21 13 6 5 1 355 357 3 354
191 191 192 193 195 196 197 193 196 195 195 195 190 187 176 178 168 159 142 117 101 110 201 318 353 356 9 106 123 55 35 42 29 14 3 353 349 340 332 334 328 326 326
189 187 188 188 191 195 194 195 195 194 193 193 188 184 183 187 185 176 173 157 128 92 77 52 14 6 38 111 116 78 347 354 348 345 345 339 347 343 337 328 317 307 306
185 183 185 190 191 193 194 196 195 193 193 192 190 187 186 184 183 184 178 189 213 190 73 35 356 15 50 92 136 339 329 338 339 344 346 346 342 339 333 332 330 305 301
187 186 188 191 193 195 196 197 195 195 195 193 190 190 188 188 188 188 201 211 217 218 237 341 336 268 335 35 17 329 317 316 317 316 316 317 318 320 321 319 318 317 313
191 193 193 190 191 194 197 198 196 196 197 193 193 189 186 187 193 196 208 225 234 228 241 290 302 264 263 289 304 306 308 307 311 313 308 309 305 311 308 311 306 310 308
197 196 192 190 193 196 198 197 197 197 198 194 194 191 190 190 195 197 212 226 228 245 262 265 280 280 260 274 294 304 303 304 307 308 313 310 304 306 303 309 308 301 304
202 197 199 198 199 199 199 197 196 196 199 194 194 194 195 195 198 199 207 226 240 254 286 250 262 262 271 288 298 302 301 303 308 311 312 323 321 318 315 325 325 316 311
206 204 202 200 202 202 200 199 196 195 196 196 199 196 198 197 200 212 222 245 258 255 279 251 248 265 287 299 303 302 303 310 321 315 313 324 323 321 326 335 328 322 319
223 214 209 207 202 202 199 195 193 195 195 196 196 201 202 199 204 215 223 239 250 262 251 220 259 293 306 311 306 305 307 311 314 318 320 324 324 326 333 331 324 322 322
235 214 207 202 201 201 196 192 191 192 195 194 193 199 201 199 206 219 224 234 252 244 219 254 289 305 314 320 314 307 306 309 316 322 324 328 330 332 330 330 327 327 324
226 208 200 197 195 198 191 190 190 191 191 187 189 192 187 181 192 209 223 229 230 215 242 282 299 304 308 305 304 304 308 312 322 332 335 328 327 326 326 330 330 326 327
211 197 185 187 193 192 186 188 189 186 182 183 186 184 177 182 199 204 209 199 207 240 278 296 305 312 314 317 319 322 324 329 336 334 332 329 326 324 327 330 327 330 333
204 192 187 181 181 182 187 184 183 181 178 182 181 178 178 195 192 184 190 203 247 278 298 308 317 338 341 349 357 356 346 345 342 338 334 329 328 330 335 334 337 347 338
204 193 183 174 172 177 181 183 176 177 179 180 177 175 182 190 183 190 201 223 261 290 307 320 332 345 1 13 12 0 355 351 350 343 335 336 348 353 348 348 352 354 353
199 190 179 176 171 168 171 175 176 176 177 175 172 174 184 181 177 183 186 227 284 306 315 329 345 11 17 18 9 357 349 345 338 343 347 355 358 5 16 14 6 354 353
195 182 179 172 164 164 167 172 174 175 175 169 171 176 172 162 170 171 183 257 310 305 328 354 6 10 15 12 1 348 344 343 345 0 1 359 353 359 355 359 359 23 360
Wind_Speed_850mb
56 56 49 33 46 45 34 27 21 21 19 13 9 12 17 20 24 22 15 16 19 21 22 24 27 34 38 32 22 26 30 14 13 21 30 40 27 21 20 20 22 27 25
53 62 52 50 49 38 31 27 27 23 19 14 13 14 16 16 13 9 12 16 19 21 22 24 27 32 33 31 28 27 25 33 6 2 7 7 19 26 23 16 17 18 15
54 64 58 57 50 43 33 30 29 26 20 16 13 12 12 8 5 9 13 15 18 19 19 22 25 28 32 35 31 30 28 25 32 31 12 8 8 8 21 23 17 16 15
56 60 58 57 48 38 36 34 33 27 22 15 9 9 6 1 7 12 13 17 18 18 21 22 24 28 32 36 35 33 30 25 25 25 31 28 23 9 3 17 18 14 13
57 67 67 56 45 45 40 38 35 30 22 12 7 5 2 6 11 14 16 16 18 21 24 26 26 29 31 36 33 34 35 32 28 27 22 21 18 20 14 7 11 8 11
54 66 57 54 49 48 43 43 38 31 21 11 5 2 4 9 14 16 15 15 17 21 19 19 18 19 20 22 29 30 33 31 31 30 31 27 25 25 20 13 13 10 10
59 65 65 66 59 54 52 48 40 32 22 13 7 5 8 11 13 14 13 12 11 13 13 20 17 17 19 9 19 24 22 20 25 31 28 29 31 28 24 23 19 15 14
61 68 69 69 64 60 56 50 43 36 24 16 10 10 12 11 14 14 11 12 10 8 7 10 15 14 15 10 14 21 23 19 20 26 28 29 33 31 32 30 27 22 18
67 71 70 74 67 64 58 51 46 38 28 19 14 14 13 11 13 14 14 12 9 7 6 5 9 16 14 5 7 17 25 16 16 18 23 21 24 28 32 33 28 27 28
56 62 67 69 67 62 55 50 44 37 30 22 17 17 13 11 12 14 11 9 8 6 2 5 13 14 13 1 2 11 16 18 14 12 18 23 26 27 28 29 31 29 24
57 62 63 63 68 63 59 51 48 44 35 25 21 20 15 13 18 19 17 16 14 8 3 6 10 14 11 4 5 6 9 13 13 16 20 23 26 23 26 31 26 22 24
50 54 58 62 69 68 62 56 54 47 35 26 24 22 18 18 21 19 15 12 9 10 9 2 7 12 10 8 8 3 4 10 16 21 23 24 26 24 26 30 36 33 34
48 52 56 63 67 68 68 64 58 50 40 30 27 25 21 19 21 19 17 11 8 5 4 7 4 6 9 6 3 1 7 12 14 17 20 23 27 30 30 37 38 29 31
52 55 59 63 69 72 74 69 62 54 43 33 31 26 22 19 21 19 15 12 9 7 5 4 5 4 1 2 2 5 10 14 18 22 25 30 33 36 41 38 42 34 38
55 61 64 66 70 74 77 73 65 57 48 37 32 27 23 22 24 20 16 15 10 9 6 6 6 8 7 6 8 11 16 22 23 28 33 38 40 46 44 46 44 43 38
59 59 57 61 73 83 84 78 69 61 51 39 31 30 27 24 24 21 17 14 12 12 12 12 11 12 12 11 14 20 28 37 42 46 47 50 56 55 51 46 44 45 44
59 63 72 75 81 86 87 82 74 64 53 44 34 33 30 25 27 23 15 14 14 14 14 15 14 12 12 15 21 27 38 45 49 47 36 39 43 37 37 39 41 39 36
58 58 60 66 73 80 81 77 74 64 55 45 38 33 29 26 28 25 20 14 18 17 17 13 11 11 14 20 27 34 38 36 34 31 32 40 41 37 32 38 37 30 33
53 55 55 61 68 74 78 79 79 68 55 48 39 32 27 27 28 22 21 16 16 17 13 10 9 16 20 25 30 32 33 35 34 32 43 39 37 32 30 36 35 37 35
43 48 50 53 58 70 73 77 77 73 57 50 36 28 24 27 25 20 19 17 17 15 13 11 14 20 26 26 30 33 35 34 28 40 37 34 30 27 36 45 36 34 33
37 45 42 50 57 67 68 75 79 73 55 45 36 26 25 26 22 18 18 17 15 14 12 15 20 23 28 36 42 39 32 26 26 24 21 22 28 37 45 47 32 35 45
38 43 45 50 54 58 66 75 76 64 54 45 36 28 31 30 21 19 17 15 12 10 13 19 23 29 33 36 33 24 20 24 27 25 23 27 37 44 48 37 42 44 29
37 41 45 49 51 57 65 71 72 63 57 46 37 33 32 27 23 20 16 10 9 12 16 22 23 24 29 26 22 17 20 24 26 25 27 34 44 45 36 35 33 23 26
40 45 49 51 58 62 63 67 67 62 52 46 38 37 34 28 28 18 13 9 9 14 17 16 20 21 18 20 19 18 22 27 22 24 27 39 35 36 33 30 23 24 27
46 48 51 55 61 65 67 68 66 56 48 44 41 39 32 27 25 16 10 7 8 10 13 16 14 14 14 16 19 23 25 24 29 27 23 26 30 27 32 29 27 27 31
49 54 55 60 66 70 72 68 56 46 47 44 46 40 32 30 21 17 9 4 8 10 12 13 13 16 13 18 22 26 26 29 33 18 24 26 28 33 35 35 38 32 30
Wind_Direction_850mb
197 200 203 231 215 215 212 212 214 217 215 226 255 283 302 309 317 327 2 34 49 50 46 40 29 24 19 33 49 39 42 112 92 77 74 61 62 64 65 71 84 85 88
194 199 201 212 208 211 212 210 214 211 215 229 259 282 290 305 324 15 51 61 61 58 53 41 32 30 44 51 53 42 41 48 103 195 37 45 48 62 60 56 64 71 83
194 195 202 202 201 203 202 212 212 212 215 232 259 278 296 324 41 84 90 77 62 51 47 46 42 39 49 48 48 46 45 46 47 52 64 40 29 38 38 49 72 68 77
202 199 197 195 200 200 209 201 203 207 215 229 255 288 296 255 140 118 102 82 58 57 65 59 60 58 54 47 43 39 44 49 52 44 47 55 55 33 335 33 52 58 63
196 200 198 197 198 206 206 197 199 206 213 226 261 301 255 157 140 127 109 89 59 83 74 76 72 63 54 45 45 42 41 49 53 51 41 34 31 33 40 13 8 22 35
188 204 198 194 198 204 200 197 198 205 211 224 256 227 154 157 144 136 121 105 83 86 81 66 66 54 45 41 43 41 46 51 49 45 39 41 44 37 38 24 3 352 330
187 193 195 192 199 201 199 197 199 205 208 218 219 175 158 149 150 145 133 121 110 93 80 56 57 52 30 43 39 29 27 39 42 37 48 57 56 50 43 36 25 20 7
192 196 195 195 200 202 199 198 200 202 205 211 202 169 158 164 166 164 161 148 138 108 79 56 40 28 25 35 23 19 19 27 38 37 59 54 48 45 42 39 32 17 11
195 194 191 198 199 199 200 198 199 198 202 206 194 177 181 173 177 174 168 161 148 119 77 41 14 354 354 351 10 14 17 19 36 78 44 35 28 26 25 26 27 18 3
193 192 193 195 197 199 198 196 198 199 199 199 187 188 178 177 181 174 167 176 197 201 134 14 340 349 355 41 5 24 29 58 62 48 21 13 6 5 1 355 357 3 354
191 191 192 193 195 196 197 193 196 195 195 195 190 187 176 178 168 159 142 117 101 110 201 318 353 356 9 106 123 55 35 42 29 14 3 353 349 340 332 334 328 326 326
189 187 188 188 191 195 194 195 195 194 193 193 188 184 183 187 185 176 173 157 128 92 77 52 14 6 38 111 116 78 347 354 348 345 345 339 347 343 337 328 317 307 306
185 183 185 190 191 193 194 196 195 193 193 192 190 187 186 184 183 184 178 189 213 190 73 35 356 15 50 92 136 339 329 338 339 344 346 346 342 339 333 332 330 305 301
187 186 188 191 193 195 196 197 195 195 195 193 190 190 188 188 188 188 201 211 217 218 237 341 336 268 335 35 17 329 317 316 317 316 316 317 318 320 321 319 318 317 313
191 193 193 190 191 194 197 198 196 196 197 193 193 189 186 187 193 196 208 225 234 228 241 290 302 264 263 289 304 306 308 307 311 313 308 309 305 311 308 311 306 310 308
197 196 192 190 193 196 198 197 197 197 198 194 194 191 190 190 195 197 212 226 228 245 262 265 280 280 260 274 294 304 303 304 307 308 313 310 304 306 303 309 308 301 304
202 197 199 198 199 199 199 197 196 196 199 194 194 194 195 195 198 199 207 226 240 254 286 250 262 262 271 288 298 302 301 303 308 311 312 323 321 318 315 325 325 316 311
206 204 202 200 202 202 200 199 196 195 196 196 199 196 198 197 200 212 222 245 258 255 279 251 248 265 287 299 303 302 303 310 321 315 313 324 323 321 326 335 328 322 319
223 214 209 207 202 202 199 195 193 195 195 196 196 201 202 199 204 215 223 239 250 262 251 220 259 293 306 311 306 305 307 311 314 318 320 324 324 326 333 331 324 322 322
235 214 207 202 201 201 196 192 191 192 195 194 193 199 201 199 206 219 224 234 252 244 219 254 289 305 314 320 314 307 306 309 316 322 324 328 330 332 330 330 327 327 324
226 208 200 197 195 198 191 190 190 191 191 187 189 192 187 181 192 209 223 229 230 215 242 282 299 304 308 305 304 304 308 312 322 332 335 328 327 326 326 330 330 326 327
211 197 185 187 193 192 186 188 189 186 182 183 186 184 177 182 199 204 209 199 207 240 278 296 305 312 314 317 319 322 324 329 336 334 332 329 326 324 327 330 327 330 333
204 192 187 181 181 182 187 184 183 181 178 182 181 178 178 195 192 184 190 203 247 278 298 308 317 338 341 349 357 356 346 345 342 338 334 329 328 330 335 334 337 347 338
204 193 183 174 172 177 181 183 176 177 179 180 177 175 182 190 183 190 201 223 261 290 307 320 332 345 1 13 12 0 355 351 350 343 335 336 348 353 348 348 352 354 353
199 190 179 176 171 168 171 175 176 176 177 175 172 174 184 181 177 183 186 227 284 306 315 329 345 11 17 18 9 357 349 345 338 343 347 355 358 5 16 14 6 354 353
195 182 179 172 164 164 167 172 174 175 175 169 171 176 172 162 170 171 183 257 310 305 328 354 6 10 15 12 1 348 344 343 345 0 1 359 353 359 355 359 359 23 360